This is the latest recevied weather packets stored in our database for station/object KB4MOX. If no packets are shown the sender has not sent any weather packets the latest 10 day(s).
| Time | Temp. | Humidity | Pressure | Rain* | Wind** | Luminosity | Snow |
|---|---|---|---|---|---|---|---|
| 1787428388 | 34.44° C | 52% | 1014 hPa | 0 mm | - | 616 W/m² | - |
| 1787428083 | 33.33° C | 57% | 1014 hPa | 0 mm | - | 629 W/m² | - |
| 1787427778 | 33.33° C | 56% | 1014.1 hPa | 0 mm | - | 594 W/m² | - |
| 1787427474 | 33.89° C | 55% | 1014.2 hPa | 0 mm | - | 525 W/m² | - |
| 1787427170 | 33.33° C | 58% | 1014.2 hPa | 0 mm | - | 713 W/m² | - |
| 1787426865 | 33.89° C | 56% | 1014.3 hPa | 0 mm | - | 703 W/m² | - |
| 1787426560 | 33.33° C | 59% | 1014.3 hPa | 0 mm | - | 677 W/m² | - |
| 1787426257 | 33.33° C | 58% | 1014.2 hPa | 0 mm | - | 598 W/m² | - |
| 1787425953 | 32.78° C | 59% | 1014.6 hPa | 0 mm | - | 704 W/m² | - |
| 1787425650 | 32.78° C | 59% | 1014.6 hPa | 0 mm | - | 702 W/m² | - |
| 1787425345 | 32.78° C | 58% | 1014.5 hPa | 0 mm | - | 533 W/m² | - |
| 1787425045 | 33.33° C | 57% | 1014.9 hPa | 0 mm | - | 774 W/m² | - |
| 1787424744 | 32.78° C | 57% | 1014.8 hPa | 0 mm | - | 791 W/m² | - |
| 1787424439 | 32.78° C | 57% | 1015 hPa | 0 mm | - | 809 W/m² | - |
| 1787424135 | 32.78° C | 60% | 1014.9 hPa | 0 mm | - | 206 W/m² | - |
| 1787423831 | 32.22° C | 59% | 1015 hPa | 0 mm | - | 711 W/m² | - |
| 1787423527 | 32.78° C | 58% | 1015.1 hPa | 0 mm | - | 760 W/m² | - |
| 1787423222 | 33.33° C | 59% | 1015 hPa | 0 mm | - | 792 W/m² | - |
| 1787422918 | 32.78° C | 60% | 1015.1 hPa | 0 mm | - | 816 W/m² | - |
| 1787422614 | 32.78° C | 62% | 1015.3 hPa | 0 mm | - | 819 W/m² | - |
| 1787422309 | 32.78° C | 62% | 1015.2 hPa | 0 mm | - | 382 W/m² | - |
| 1787422006 | 32.22° C | 61% | 1015.3 hPa | 0 mm | - | 825 W/m² | - |
| 1787421702 | 32.22° C | 61% | 1015.5 hPa | 0 mm | - | 853 W/m² | - |
| 1787421397 | 32.22° C | 65% | 1015.3 hPa | 0 mm | - | 839 W/m² | - |
| 1787421092 | 31.67° C | 63% | 1015.5 hPa | 0 mm | - | 820 W/m² | - |
* Rain latest hour (hover to see other rain measurements)
** Current wind speed in m/s (hover to see current wind gust speed)